Content
SEND FEEDBACK

Daily
Averages
Monthly
Summary
United States of America

EAGLE RIVER, ALASKA


Home > North America > United States > Alaska
Elevation: 88 feet     Latitude: 61 24N     Longitude: 149 09W

WEATHER
 
SELECT A DAY
Number of Records: 433,351;   Date Range: 1/4/95 - 8/30/14
 
SHARE

PRINT THIS DATA

[ ← Previous Day ]
WEATHER ALMANAC - JANUARY 31, 2013
[ Next Day → ]
[ °C ]   °F
Weather ElementAverageHighLow
Temperature29.6 °F33.8 °F (1:16 pm)26.6 °F (12:36 am)
Dewpoint28.6 °F32 °F (6:16 pm)24.8 °F (12:36 am)
Humidity96.4 %100 % (2:16 am)87 % (1:16 pm)
Barometer29.84 in29.96 in (11:56 pm)29.71 in (12:36 am)
Wind Speed1.7 mph8.1 mph (1:36 am)
Weather ElementAverage
Visibility5.9 mi
Wind DirectionENE (52.3 °)

Weather ElementTotal
Precipitation---
Heating Degree Days34.8 (Base 65)
Averaged from 69 records on January 31, 2013
WEATHER CONDITIONS BREAKOUT
WIND DIRECTION BREAKOUT
WEATHER BY HOUR - JANUARY 31, 2013
[ °C ]   °F
Local TimeTemperatureDewpointHumidityBarometerVisibilityWind DirectionWind SpeedGust SpeedPrecipitationEventsConditions
12:36 AM26.6 °F24.8 °F93 %29.71 in10.0 miNE (40°)3.5 mphOvercast
12:56 AM26.6 °F24.8 °F93 %29.71 in10.0 miNE (40°)5.8 mphOvercast
1:16 AM26.6 °F24.8 °F93 %29.71 in10.0 miNE (40°)6.9 mphOvercast
1:36 AM26.6 °F24.8 °F93 %29.71 in10.0 miNE (40°)8.1 mphOvercast
1:56 AM26.6 °F24.8 °F93 %29.71 in10.0 miNNE (30°)3.5 mphOvercast
2:16 AM26.6 °F26.6 °F100 %29.72 in10.0 miNE (40°)6.9 mphOvercast
2:36 AM26.6 °F26.6 °F100 %29.72 in10.0 miCalmOvercast
2:56 AM26.6 °F26.6 °F100 %29.74 in10.0 miNW (320°)3.5 mphOvercast
3:16 AM28.4 °F26.6 °F93 %29.74 in10.0 miSSW (200°)4.6 mphOvercast
3:36 AM28.4 °F26.6 °F93 %29.74 in10.0 miCalmOvercast
3:56 AM28.4 °F26.6 °F93 %29.75 in10.0 miSW (230°)3.5 mphOvercast
4:16 AM28.4 °F26.6 °F93 %29.75 in10.0 miSSW (200°)3.5 mphOvercast
4:36 AM28.4 °F26.6 °F93 %29.75 in10.0 miSouth (180°)3.5 mphOvercast
4:56 AM28.4 °F26.6 °F93 %29.76 in10.0 miSouth (180°)3.5 mphOvercast
5:16 AM28.4 °F26.6 °F93 %29.76 in10.0 miSSW (200°)3.5 mphOvercast
5:36 AM28.4 °F26.6 °F93 %29.76 in10.0 miSouth (180°)3.5 mphOvercast
5:56 AM28.4 °F26.6 °F93 %29.76 in7.0 miCalmOvercast
6:16 AM28.4 °F28.4 °F100 %29.76 in6.0 miCalmOvercast
6:36 AM28.4 °F28.4 °F100 %29.77 in6.0 miCalmOvercast
6:56 AM28.4 °F28.4 °F100 %29.78 in3.0 miSouth (170°)3.5 mphOvercast
7:16 AM28.4 °F28.4 °F100 %29.79 in2.5 miCalmOvercast
7:36 AM28.4 °F26.6 °F93 %29.80 in4.0 miWSW (250°)3.5 mphOvercast
7:56 AM28.4 °F26.6 °F93 %29.80 in10.0 miSouth (190°)3.5 mphOvercast
8:16 AM28.4 °F28.4 °F100 %29.79 in7.0 miCalmOvercast
8:36 AM28.4 °F26.6 °F93 %29.80 in10.0 miCalmOvercast
8:56 AM28.4 °F26.6 °F93 %29.81 in10.0 miCalmOvercast
9:16 AM28.4 °F28.4 °F100 %29.81 in10.0 miESE (110°)3.5 mphOvercast
9:36 AM28.4 °F28.4 °F100 %29.82 in10.0 miCalmOvercast
9:56 AM28.4 °F26.6 °F93 %29.83 in10.0 miCalmOvercast
10:16 AM28.4 °F28.4 °F100 %29.83 in10.0 miCalmOvercast
10:36 AM30.2 °F28.4 °F93 %29.84 in10.0 miCalmOvercast
10:56 AM30.2 °F30.2 °F100 %29.85 in9.0 miCalmMostly Cloudy
11:16 AM30.2 °F30.2 °F100 %29.86 in10.0 miCalmOvercast
11:36 AM30.2 °F30.2 °F100 %29.86 in10.0 miCalmOvercast
11:56 AM30.2 °F30.2 °F100 %29.87 in10.0 miENE (70°)3.5 mphOvercast
12:16 PM30.2 °F30.2 °F100 %29.87 in10.0 miNE (40°)3.5 mphOvercast
12:36 PM30.2 °F30.2 °F100 %29.87 in10.0 miCalmOvercast
12:56 PM32.0 °F30.2 °F93 %29.88 in10.0 miCalmOvercast
1:16 PM33.8 °F30.2 °F87 %29.87 in6.0 miCalmOvercast
1:36 PM33.8 °F30.2 °F87 %29.88 in10.0 miNorth (10°)3.5 mphOvercast
1:56 PM30.2 °F28.4 °F93 %29.88 in6.0 miCalmOvercast
2:16 PM32.0 °F30.2 °F93 %29.89 in2.0 miCalmOvercast
2:36 PM32.0 °F30.2 °F93 %29.90 in1.8 miCalmOvercast
2:56 PM30.2 °F28.4 °F93 %29.91 in1.2 miCalmOvercast
3:16 PM30.2 °F28.4 °F93 %29.91 in0.8 miCalmOvercast
3:36 PM30.2 °F30.2 °F100 %29.90 in0.5 miCalmOvercast
3:56 PM30.2 °F30.2 °F100 %29.91 in0.2 miCalmOvercast
4:16 PM30.2 °F30.2 °F100 %29.91 in0.5 miCalmOvercast
4:36 PM30.2 °F30.2 °F100 %29.91 in0.2 miCalmOvercast
5:16 PM30.2 °F30.2 °F100 %29.91 in0.2 miCalmOvercast
5:36 PM30.2 °F30.2 °F100 %29.92 in0.2 miCalmOvercast
6:16 PM32.0 °F32.0 °F100 %29.92 in0.5 miNNE (20°)3.5 mphOvercast
6:36 PM30.2 °F30.2 °F100 %29.92 in0.5 miCalmOvercast
6:56 PM30.2 °F30.2 °F100 %29.92 in0.5 miENE (60°)4.6 mphOvercast
7:16 PM30.2 °F30.2 °F100 %29.92 in0.2 miNNE (20°)3.5 mphOvercast
7:36 PM32.0 °F32.0 °F100 %29.92 in0.5 miCalmOvercast
7:56 PM32.0 °F32.0 °F100 %29.92 in0.5 miCalmOvercast
8:16 PM32.0 °F30.2 °F93 %29.93 in0.2 miCalmOvercast
8:36 PM32.0 °F30.2 °F93 %29.94 in0.5 miCalmOvercast
8:56 PM32.0 °F30.2 °F93 %29.93 in0.5 miCalmOvercast
9:16 PM32.0 °F30.2 °F93 %29.94 in1.0 miCalmOvercast
9:36 PM30.2 °F30.2 °F100 %29.93 in1.8 miESE (110°)4.6 mphOvercast
9:56 PM30.2 °F30.2 °F100 %29.93 in3.0 miSE (130°)4.6 mphOvercast
10:16 PM30.2 °F30.2 °F100 %29.93 in5.0 miESE (110°)3.5 mphOvercast
10:36 PM30.2 °F30.2 °F100 %29.94 in5.0 miCalmOvercast
10:56 PM30.2 °F28.4 °F93 %29.94 in3.0 miCalmOvercast
11:16 PM30.2 °F30.2 °F100 %29.95 in2.5 miSSW (210°)3.5 mphOvercast
11:36 PM30.2 °F30.2 °F100 %29.95 in3.0 miSouth (190°)3.5 mphOvercast
11:56 PM30.2 °F28.4 °F93 %29.96 in3.0 miCalmOvercast
Hourly data recorded from PABV, located miles away from Eagle River, Alaska







STORIES FROM OUR PARTNERS